Weather History for KODX - November, 2012

Change the Weather History Date:

Friday, November 9, 2012

  Actual Average Record
Temperature  
Mean Temperature 40 °F 40 °F  
Max Temperature 48 °F 52 °F - ()
Min Temperature 32 °F 27 °F - ()
Degree Days  
Heating Degree Days 25 25  
Month to date heating degree days 213 213  
Since 1 July heating degree days 904 833  
Cooling Degree Days 0 0  
Month to date cooling degree days 0 0  
Year to date cooling degree days 1220 845  
Moisture  
Dew Point 36 °F    
Average Humidity 83    
Maximum Humidity 100    
Minimum Humidity 66    
Precipitation  
Precipitation 0.00 in 0.04 in - ()
Month to date precipitation T 0.39  
Year to date precipitation 11.37 23.67  
Sea Level Pressure  
Sea Level Pressure 29.79 in    
Wind  
Wind Speed 8 mph (NNE)    
Max Wind Speed 15 mph    
Max Gust Speed 18 mph    
Visibility 4 miles    
Events Fog    
T = Trace of Precipitation, MM = Missing Value Source: NWS Daily Summary

Daily Weather History Graph

Daily Weather History Graph

Search for Another Location

Airport or City:

Trip Planner

Search our weather history database for the weather conditions in past years. The results will help you decide how hot, cold, wet, or windy it might be!

Date:

Astronomy

Nov. 09, 2012 Rise Set
Actual Time 7:18 AM CST 5:20 PM CST
Civil Twilight 6:48 AM CST 5:50 PM CST
Nautical Twilight 6:15 AM CST 6:23 PM CST
Astronomical Twilight 5:42 AM CST 6:55 PM CST
Moon 2:14 AM CST (11/9) 2:37 PM CST (11/9)
Length of Visible Light 11h 01m
Length of Day
10h 02m
Waning Crescent, 23% of the Moon is Illuminated
Nov 9
Waning Crescent
Nov 13
New
Nov 20
First Quarter
Nov 28
Full
Dec 6
Last Quarter

Hourly Weather History & Observations

Time (CST) Temp. Windchill Dew Point Humidity Pressure Visibility Wind Dir Wind Speed Gust Speed Precip Events Conditions
12:53 AM 34.0 °F 29.8 °F 32.0 °F 92% 29.90 in 6.0 mi North 4.6 mph - N/A   Clear
1:23 AM 33.8 °F 27.7 °F 30.2 °F 87% 29.87 in 5.0 mi NNW 6.9 mph - N/A   Scattered Clouds
1:32 AM 33.8 °F 26.4 °F 32.0 °F 93% 29.87 in 5.0 mi North 9.2 mph - N/A   Mostly Cloudy
1:53 AM 35.1 °F 27.4 °F 34.0 °F 96% 29.88 in 4.0 mi North 10.4 mph - N/A   Overcast
2:53 AM 36.0 °F 29.0 °F 34.0 °F 93% 29.89 in 4.0 mi NNE 9.2 mph - N/A   Overcast
3:53 AM 36.0 °F 28.0 °F 34.0 °F 93% 29.91 in 4.0 mi North 11.5 mph - N/A   Overcast
4:53 AM 36.0 °F 28.0 °F 35.1 °F 97% 29.91 in 4.0 mi North 11.5 mph - N/A   Overcast
5:53 AM 36.0 °F 27.5 °F 34.0 °F 93% 29.91 in 3.0 mi NNE 12.7 mph - N/A   Overcast
6:04 AM 35.6 °F 26.6 °F 33.8 °F 93% 29.87 in 2.5 mi North 13.8 mph - N/A   Overcast
6:53 AM 36.0 °F 28.0 °F 35.1 °F 97% 29.91 in 2.5 mi NNE 11.5 mph - N/A   Overcast
7:44 AM 35.6 °F 28.6 °F 35.6 °F 100% 29.86 in 1.5 mi NE 9.2 mph - N/A   Overcast
7:53 AM 36.0 °F 28.5 °F 35.1 °F 97% 29.91 in 1.5 mi NE 10.4 mph - N/A   Overcast
8:53 AM 36.0 °F 28.0 °F 35.1 °F 97% 29.89 in 1.5 mi NE 11.5 mph - N/A   Overcast
9:19 AM 37.4 °F 29.3 °F 35.6 °F 93% 29.85 in 2.5 mi North 12.7 mph - N/A   Overcast
9:50 AM 37.4 °F 30.8 °F 35.6 °F 93% 29.84 in 3.0 mi NNE 9.2 mph - N/A   Overcast
9:53 AM 37.0 °F 31.0 °F 35.1 °F 93% 29.89 in 3.0 mi NNE 8.1 mph - N/A   Overcast
10:53 AM 39.0 °F 32.8 °F 36.0 °F 89% 29.89 in 4.0 mi North 9.2 mph - N/A   Overcast
11:33 AM 39.2 °F 33.6 °F 35.6 °F 87% 29.82 in 5.0 mi North 8.1 mph - N/A   Overcast
11:53 AM 39.9 °F 34.5 °F 36.0 °F 86% 29.86 in 5.0 mi North 8.1 mph - N/A   Overcast
12:53 PM 42.1 °F 36.1 °F 36.0 °F 79% 29.80 in 6.0 mi NE 10.4 mph - N/A   Haze
1:09 PM 42.8 °F 37.0 °F 37.4 °F 81% 29.74 in 6.0 mi NE 10.4 mph - N/A   Haze
1:39 PM 46.4 °F 42.4 °F 37.4 °F 71% 29.73 in 7.0 mi NE 8.1 mph - N/A   Scattered Clouds
1:53 PM 46.0 °F 41.4 °F 37.0 °F 71% 29.76 in 7.0 mi ENE 9.2 mph - N/A   Partly Cloudy
2:16 PM 46.4 °F 42.4 °F 37.4 °F 71% 29.72 in 7.0 mi East 8.1 mph - N/A   Mostly Cloudy
2:53 PM 48.0 °F - 37.9 °F 68% 29.74 in 8.0 mi NE 5.8 mph - N/A   Overcast
3:53 PM 48.0 °F - 39.0 °F 71% 29.75 in 8.0 mi East 5.8 mph - N/A   Overcast
4:53 PM 46.9 °F - 39.0 °F 74% 29.75 in 6.0 mi East 5.8 mph - N/A   Haze
5:37 PM 46.4 °F - 41.0 °F 81% 29.72 in 7.0 mi Calm Calm - N/A   Overcast
5:53 PM 46.9 °F - 41.0 °F 80% 29.76 in 7.0 mi ESE 3.5 mph - N/A   Overcast
6:53 PM 42.1 °F 39.2 °F 36.0 °F 79% 29.74 in 8.0 mi NE 4.6 mph - N/A   Mostly Cloudy
7:04 PM 41.0 °F 38.0 °F 35.6 °F 81% 29.69 in 7.0 mi NE 4.6 mph - N/A   Scattered Clouds
7:53 PM 37.9 °F 32.7 °F 35.1 °F 89% 29.75 in 5.0 mi NNW 6.9 mph - N/A   Clear
8:53 PM 35.1 °F 30.1 °F 33.1 °F 92% 29.73 in 4.0 mi NW 5.8 mph - N/A   Partly Cloudy
9:16 PM 35.6 °F 30.7 °F 33.8 °F 93% 29.68 in 3.0 mi NNW 5.8 mph - N/A   Mostly Cloudy
9:25 PM 35.6 °F 29.2 °F 35.6 °F 100% 29.68 in 2.5 mi NNW 8.1 mph - N/A   Mostly Cloudy
9:44 PM 37.4 °F 32.1 °F 35.6 °F 93% 29.66 in 1.5 mi North 6.9 mph - N/A   Overcast
9:53 PM 37.0 °F 33.3 °F 36.0 °F 96% 29.72 in 1.2 mi NNW 4.6 mph - N/A   Overcast
10:09 PM 37.4 °F 32.8 °F 35.6 °F 93% 29.65 in 1.0 mi North 5.8 mph - N/A   Overcast
10:29 PM 35.6 °F 31.7 °F 35.6 °F 100% 29.63 in 0.5 mi NNE 4.6 mph - N/A Fog Fog
10:53 PM 35.1 °F 32.2 °F 35.1 °F 100% 29.67 in 0.2 mi NNW 3.5 mph - N/A Fog Fog
11:33 PM 35.6 °F 31.7 °F 35.6 °F 100% 29.61 in 0.2 mi NNW 4.6 mph - N/A Fog Fog
11:53 PM 35.1 °F 30.1 °F 34.0 °F 96% 29.65 in 0.2 mi NNW 5.8 mph - N/A Fog Fog